Tracking 29799 objects as of 11-Oct-2024
HD Live streaming from Space Station
objects crossing your sky now

STARLINK-3697

Track STARLINK-3697 now!
10-day predictions
STARLINK-3697 is classified as:


NORAD ID: 51962
Int'l Code: 2022-025G
Perigee: 553.4 km
Apogee: 555.4 km
Inclination: 53.1 °
Period: 95.6 minutes
Semi major axis: 6925 km
RCS: Unknown
Launch date: March 9, 2022
Source: United States (US)
Launch site: AIR FORCE EASTERN TEST RANGE (AFETR)
Your satellite tracking list
Your tracking list is empty




NASA's NSSDC Master Catalog

Two Line Element Set (TLE):
1 51962U 22025G   24284.45022250 -.00002916  00000-0 -17699-3 0  9999
2 51962  53.0531 179.4250 0001475  91.7280 268.3878 15.06387835143325
Source of the keplerian elements: AFSPC